Location: Caltech
(34.1382°N, 118.1253°W)
Time: 12:19:21
(UTC-07:00)

Aureole 3 Rocket - Visible Passes

Search period start: 24 April 2014 00:00
Search period end: 04 May 2014 00:00
Orbit: 400 x 1760 km, 82.5° (Epoch: 24 April)

Date Brightness Start Highest point End Pass type
(mag) Time Alt. Az. Time Alt. Az. Time Alt. Az.
24 Apr 5.8 20:45:41 10° NNW 20:54:12 44° W 21:00:41 10° SSW visible
25 Apr 4.7 19:54:43 10° N 20:03:56 88° W 20:10:37 10° S visible
25 Apr 7.1 21:45:47 10° NW 21:49:38 14° WNW 21:53:06 10° W visible
26 Apr 6.4 20:52:48 10° NNW 21:00:06 30° W 21:05:51 10° SW visible
27 Apr 5.1 20:01:26 10° NNW 20:10:06 63° W 20:16:24 10° S visible
28 Apr 6.7 21:00:16 10° NW 21:05:51 20° WNW 21:10:30 10° WSW visible
29 Apr 5.7 20:08:18 10° NNW 20:16:06 43° W 20:21:52 10° SSW visible
30 Apr 7.2 21:08:40 10° NW 21:11:29 12° WNW 21:14:03 10° W visible
01 May 6.4 20:15:23 10° NNW 20:21:55 29° W 20:26:58 10° SW visible
03 May 8.1 05:34:08 10° E 05:37:00 12° ENE 05:39:56 10° NE visible
03 May 6.7 20:22:51 10° NW 20:27:35 18° WNW 20:31:31 10° WSW visible
